User: anonymous   Login
Location: Unspecified
(0.0000°N, 0.0000°E)
Time: 06:44:11
(UTC+00:00)
Language:

THOR 2R - Orbit

View from above orbital plane
View from above orbital plane
View from above satellite
View from above satellite

Ground track
Ground track

The orbit is defined by the following mean orbital elements,

1 32487U          26145.29844975 +.00000000 +00000-0 +00000-0 0 00003
2 32487   0.0277 259.0408 0002589 173.1080 277.4343  1.00273465    02
Epoch (UTC): 25 May 2026 07:09:46
Eccentricity: 0.0002589
inclination: 0.0277°
perigee height: 35775 km
apogee height: 35797 km
right ascension of ascending node: 259.0408°
argument of perigee: 173.1080°
revolutions per day: 1.00273465
mean anomaly at epoch: 277.4343°

The dashed part of the orbit path shows where the satellite is in the earth's shadow,  

DLR